{"data":{"norad_id":66745,"intl_designator":"2025-276CH","name":"AC1-002","alt_names":[],"object_type":"PAYLOAD","status":"ACTIVE","operator":null,"country":"UK","launch_date":"2025-11-28","launch_site_code":"AFWTR","launch_vehicle":null,"mission":null,"orbit_class":"UNKNOWN","rcs_meters":null,"size_class":null,"mass_kg":null,"dimensions":null,"purposes":[],"wikipedia_slug":null,"has_3d_model":false,"image_url":null,"decayed_at":null,"tle_current":{"epoch":"2026-09-20T10:34:15.798432Z","epoch_age_seconds":122683,"freshness":"FRESH","line1":"1 66745U 25276CH  26263.44046063  .00001426  00000+0  71824-4 0  9994","line2":"2 66745  97.4114 334.9621 0003085  48.5575 311.5924 15.18776380 44867","mean_motion":15.1877638,"eccentricity":0.0003085,"inclination_deg":97.4114,"raan_deg":334.9621,"arg_perigee_deg":48.5575,"mean_anomaly_deg":311.5924,"bstar":7.1824e-5,"rev_number":4486,"period_min":94.813167953007,"perigee_km":507.41270803009,"apogee_km":511.66240323091,"semimajor_km":6887.6745556305,"source":"CELESTRAK","updated_at":"2026-09-21T09:00:16.177031Z"}}}